TimePDT,TemperatureF,Dew PointF,Humidity,Sea Level PressureIn,VisibilityMPH,Wind Direction,Wind SpeedMPH,Gust SpeedMPH,PrecipitationIn,Events,Conditions,WindDirDegrees,DateUTC
12:53 AM,69.1,52.0,54,29.96,10.0,SSE,4.6,-,N/A,,Clear,150,2013-05-12 07:53:00
1:53 AM,70.0,52.0,53,29.96,10.0,SSW,8.1,-,N/A,,Clear,210,2013-05-12 08:53:00
2:53 AM,70.0,51.1,51,29.95,10.0,SSW,8.1,-,N/A,,Clear,210,2013-05-12 09:53:00
3:53 AM,69.1,51.1,53,29.96,10.0,SW,9.2,-,N/A,,Clear,220,2013-05-12 10:53:00
4:53 AM,71.1,50.0,47,29.96,10.0,SSW,8.1,-,N/A,,Clear,210,2013-05-12 11:53:00
5:53 AM,69.1,50.0,51,29.96,10.0,SSW,11.5,-,N/A,,Clear,210,2013-05-12 12:53:00
6:53 AM,71.1,51.1,49,29.98,10.0,West,8.1,-,N/A,,Clear,260,2013-05-12 13:53:00
7:53 AM,73.0,53.1,49,29.99,10.0,WSW,8.1,-,N/A,,Clear,250,2013-05-12 14:53:00
8:53 AM,78.1,54.0,43,30.00,10.0,SW,13.8,-,N/A,,Clear,230,2013-05-12 15:53:00
9:53 AM,81.0,54.0,39,29.99,10.0,WSW,15.0,-,N/A,,Clear,240,2013-05-12 16:53:00
10:53 AM,82.0,54.0,38,30.00,10.0,SW,12.7,19.6,N/A,,Clear,230,2013-05-12 17:53:00
11:53 AM,84.0,54.0,35,29.99,10.0,WSW,10.4,16.1,N/A,,Clear,240,2013-05-12 18:53:00
12:53 PM,84.9,55.0,36,29.98,10.0,West,10.4,-,N/A,,Clear,280,2013-05-12 19:53:00
1:53 PM,86.0,54.0,33,29.96,10.0,NW,13.8,18.4,N/A,,Clear,310,2013-05-12 20:53:00
2:53 PM,86.0,53.1,32,29.96,10.0,West,13.8,-,N/A,,Clear,280,2013-05-12 21:53:00
3:53 PM,86.0,53.1,32,29.94,10.0,WNW,11.5,-,N/A,,Clear,300,2013-05-12 22:53:00
4:53 PM,84.0,53.1,34,29.94,10.0,West,11.5,-,N/A,,Clear,260,2013-05-12 23:53:00
5:53 PM,82.0,52.0,35,29.94,10.0,WSW,13.8,-,N/A,,Clear,240,2013-05-13 00:53:00
6:53 PM,78.1,50.0,37,29.94,10.0,West,10.4,-,N/A,,Clear,260,2013-05-13 01:53:00
7:53 PM,75.0,48.0,38,29.95,10.0,West,9.2,-,N/A,,Clear,280,2013-05-13 02:53:00
8:53 PM,71.1,46.9,42,29.97,10.0,West,5.8,-,N/A,,Partly Cloudy,280,2013-05-13 03:53:00
9:53 PM,71.1,46.0,41,29.98,10.0,West,10.4,-,N/A,,Mostly Cloudy,260,2013-05-13 04:53:00
10:53 PM,66.9,46.0,47,30.00,10.0,SSW,6.9,-,N/A,,Scattered Clouds,200,2013-05-13 05:53:00
11:53 PM,64.9,46.9,52,30.00,10.0,SW,11.5,-,N/A,,Partly Cloudy,230,2013-05-13 06:53:00